,,PA_Meas_PMT16A,,PR_Meas_QMR101_102,,RH_Meas_QMH101,,SR_Meas_QMS101,,TA_Meas_QMH101,,GenWind,,GenWind,
time,status,PA,status,PR,status,RH,status,SR,status,TA,status,DirAvg,status,SpdAvg,
2010-07-17, 00:00:04,VALID,918.115,VALID,0,VALID,95.3079,VALID,0,VALID,17.5987,VALID,75,VALID,0,
2010-07-17, 00:01:04,VALID,918.07,VALID,0,VALID,95.2622,VALID,0,VALID,17.5792,VALID,75,VALID,0,
2010-07-17, 00:02:04,VALID,918.062,VALID,0,VALID,95.064,VALID,0,VALID,17.5208,VALID,75,VALID,0,
2010-07-17, 00:03:04,VALID,918.04,VALID,0,VALID,94.9268,VALID,0,VALID,17.4805,VALID,75,VALID,0,
2010-07-17, 00:04:04,VALID,918.036,VALID,0,VALID,94.9878,VALID,0,VALID,17.5013,VALID,75,VALID,0,
2010-07-17, 00:05:04,VALID,918.006,VALID,0,VALID,95.0869,VALID,0,VALID,17.5,VALID,75,VALID,0,
2010-07-17, 00:06:04,VALID,917.998,VALID,0,VALID,94.9268,VALID,0,VALID,17.5013,VALID,75,VALID,0,
2010-07-17, 00:07:04,VALID,917.988,VALID,0,VALID,94.9573,VALID,0,VALID,17.5208,VALID,75,VALID,0.323438,
2010-07-17, 00:08:04,VALID,917.97,VALID,0,VALID,95.1402,VALID,0,VALID,17.5598,VALID,75,VALID,0.395312,
2010-07-17, 00:09:04,VALID,917.932,VALID,0,VALID,95.0716,VALID,0,VALID,17.5194,VALID,75,VALID,0.411328,
2010-07-17, 00:10:04,VALID,917.89,VALID,0,VALID,94.6905,VALID,0,VALID,17.5208,VALID,75,VALID,0.547656,
2010-07-17, 00:11:04,VALID,917.883,VALID,0,VALID,94.3245,VALID,0,VALID,17.5598,VALID,75,VALID,0.368359,
2010-07-17, 00:12:04,VALID,917.86,VALID,0,VALID,93.6384,VALID,0,VALID,17.5792,VALID,75,VALID,0.275781,
2010-07-17, 00:13:04,VALID,917.874,VALID,0,VALID,93.6613,VALID,0,VALID,17.6377,VALID,75,VALID,0.0914062,
2010-07-17, 00:14:04,VALID,917.833,VALID,0,VALID,93.7451,VALID,0,VALID,17.6572,VALID,75,VALID,0,
2010-07-17, 00:15:04,VALID,917.801,VALID,0,VALID,93.6003,VALID,0,VALID,17.6182,VALID,75,VALID,0.132422,
2010-07-17, 00:16:04,VALID,917.829,VALID,0,VALID,93.242,VALID,0,VALID,17.5987,VALID,75,VALID,0.255859,
2010-07-17, 00:17:04,VALID,917.845,VALID,0,VALID,93.5164,VALID,0,VALID,17.5987,VALID,75,VALID,0.0101562,
2010-07-17, 00:18:04,VALID,917.845,VALID,0,VALID,93.8366,VALID,0,VALID,17.5987,VALID,75,VALID,0,
2010-07-17, 00:19:04,VALID,917.797,VALID,0,VALID,93.9891,VALID,0,VALID,17.5987,VALID,75,VALID,0,
2010-07-17, 00:20:04,VALID,917.793,VALID,0,VALID,94.0043,VALID,0,VALID,17.5987,VALID,75,VALID,0.205859,
2010-07-17, 00:21:04,VALID,917.774,VALID,0,VALID,94.0958,VALID,0,VALID,17.5584,VALID,75,VALID,0.664453,
2010-07-17, 00:22:04,VALID,917.753,VALID,0,VALID,94.1797,VALID,0,VALID,17.5584,VALID,75,VALID,0.688281,
2010-07-17, 00:23:04,VALID,917.755,VALID,0,VALID,94.1873,VALID,0,VALID,17.5598,VALID,75,VALID,1.03477,
2010-07-17, 00:24:04,VALID,917.728,VALID,0,VALID,93.8595,VALID,0,VALID,17.5403,VALID,75,VALID,1.01133,
2010-07-17, 00:25:04,VALID,917.733,VALID,0,VALID,93.425,VALID,0,VALID,17.5208,VALID,75,VALID,0.792969,
2010-07-17, 00:26:04,VALID,917.724,VALID,0,VALID,93.7451,VALID,0,VALID,17.5194,VALID,75,VALID,0.242188,
2010-07-17, 00:27:04,VALID,917.68,VALID,0,VALID,93.707,VALID,0,VALID,17.5208,VALID,75,VALID,0.561328,
2010-07-17, 00:28:04,VALID,917.701,VALID,0,VALID,94.0653,VALID,0,VALID,17.5208,VALID,75,VALID,0.866797,
2010-07-17, 00:29:04,VALID,917.655,VALID,0,VALID,94.2712,VALID,0,VALID,17.4818,VALID,75,VALID,1.11641,
2010-07-17, 00:30:04,VALID,917.621,VALID,0,VALID,94.5151,VALID,0,VALID,17.4428,VALID,111,VALID,0.789453,
2010-07-17, 00:31:04,VALID,917.608,VALID,0,VALID,94.6981,VALID,0.107441,VALID,17.4025,VALID,113,VALID,1.04102,
2010-07-17, 00:32:04,VALID,917.604,VALID,0,VALID,94.9649,VALID,0.107441,VALID,17.3635,VALID,113,VALID,0.776172,
2010-07-17, 00:33:04,VALID,917.573,VALID,0,VALID,95.1479,VALID,0.107441,VALID,17.3246,VALID,113,VALID,0.904297,
2010-07-17, 00:34:04,VALID,917.571,VALID,0,VALID,95.3613,VALID,0.107441,VALID,17.3051,VALID,133,VALID,1.05859,
2010-07-17, 00:35:04,VALID,917.587,VALID,0,VALID,95.5748,VALID,0,VALID,17.2856,VALID,133,VALID,0.517969,
2010-07-17, 00:36:04,VALID,917.557,VALID,0,VALID,95.7501,VALID,0,VALID,17.2661,VALID,133,VALID,0.716797,
2010-07-17, 00:37:04,VALID,917.552,VALID,0,VALID,95.8187,VALID,0.107441,VALID,17.2453,VALID,133,VALID,0.746094,
2010-07-17, 00:38:04,VALID,917.519,VALID,0,VALID,95.8645,VALID,0.107441,VALID,17.2466,VALID,133,VALID,0.731641,
2010-07-17, 00:39:04,VALID,917.531,VALID,0,VALID,95.9102,VALID,0,VALID,17.2466,VALID,133,VALID,0.812891,
2010-07-17, 00:40:04,VALID,917.529,VALID,0,VALID,95.9559,VALID,0,VALID,17.2271,VALID,133,VALID,0.850391,
2010-07-17, 00:41:04,VALID,917.507,VALID,0,VALID,96.0169,VALID,0,VALID,17.2271,VALID,133,VALID,0.994922,
2010-07-17, 00:42:04,VALID,917.471,VALID,0,VALID,96.0322,VALID,0.107441,VALID,17.2271,VALID,133,VALID,1.10273,
2010-07-17, 00:43:04,VALID,917.484,VALID,0,VALID,96.0932,VALID,0.107441,VALID,17.2271,VALID,133,VALID,0.947266,
2010-07-17, 00:44:04,VALID,917.49,VALID,0,VALID,96.1694,VALID,0.107441,VALID,17.2466,VALID,133,VALID,1.23672,
2010-07-17, 00:45:04,VALID,917.474,VALID,0,VALID,96.1999,VALID,0,VALID,17.2271,VALID,133,VALID,1.08477,
2010-07-17, 00:46:04,VALID,917.453,VALID,0,VALID,96.1541,VALID,0,VALID,17.2285,VALID,133,VALID,1.11719,
2010-07-17, 00:47:04,VALID,917.397,VALID,0,VALID,96.0779,VALID,0,VALID,17.2285,VALID,133,VALID,0.866016,
2010-07-17, 00:48:04,VALID,917.354,VALID,0,VALID,95.9331,VALID,0,VALID,17.2285,VALID,133,VALID,0.982031,
2010-07-17, 00:49:04,VALID,917.325,VALID,0,VALID,95.7044,VALID,0,VALID,17.2479,VALID,133,VALID,0.842578,
2010-07-17, 00:50:04,VALID,917.314,VALID,0,VALID,95.3461,VALID,0,VALID,17.2479,VALID,133,VALID,0.992578,
2010-07-17, 00:51:04,VALID,917.252,VALID,0,VALID,95.125,VALID,0,VALID,17.2869,VALID,133,VALID,1.00898,
2010-07-17, 00:52:04,VALID,917.212,VALID,0,VALID,94.82,VALID,0,VALID,17.2674,VALID,133,VALID,1.07539,
2010-07-17, 00:53:04,VALID,917.193,VALID,0,VALID,94.477,VALID,0,VALID,17.2869,VALID,132,VALID,1.04688,
2010-07-17, 00:54:04,VALID,917.179,VALID,0,VALID,94.0577,VALID,0,VALID,17.3259,VALID,132,VALID,1.04336,
2010-07-17, 00:55:04,VALID,917.137,VALID,0,VALID,94.0272,VALID,0,VALID,17.3649,VALID,132,VALID,1.11211,
2010-07-17, 00:56:04,VALID,917.128,VALID,0,VALID,94.3931,VALID,0,VALID,17.3454,VALID,132,VALID,0.881641,
2010-07-17, 00:57:04,VALID,917.07,VALID,0,VALID,94.9039,VALID,0,VALID,17.3662,VALID,163,VALID,0.903125,
2010-07-17, 00:58:04,VALID,917.033,VALID,0,VALID,95.3079,VALID,0,VALID,17.3064,VALID,156,VALID,1.07305,
2010-07-17, 00:59:04,VALID,916.992,VALID,0,VALID,95.5824,VALID,0,VALID,17.2674,VALID,158,VALID,1.07383,
2010-07-17, 01:00:04,VALID,916.997,VALID,0,VALID,95.8492,VALID,0,VALID,17.2479,VALID,153,VALID,0.8375,
2010-07-17, 01:01:04,VALID,916.985,VALID,0,VALID,96.055,VALID,0,VALID,17.2285,VALID,154,VALID,1.09531,
2010-07-17, 01:02:04,VALID,916.957,VALID,0,VALID,96.2685,VALID,0,VALID,17.209,VALID,168,VALID,0.827344,
2010-07-17, 01:03:04,VALID,916.963,VALID,0,VALID,96.3752,VALID,0,VALID,17.1895,VALID,168,VALID,0.974609,
2010-07-17, 01:04:04,VALID,916.898,VALID,0,VALID,96.4972,VALID,0,VALID,17.1505,VALID,168,VALID,1.11563,
2010-07-17, 01:05:04,VALID,916.883,VALID,0,VALID,96.5582,VALID,0,VALID,17.1505,VALID,168,VALID,1.08906,
2010-07-17, 01:06:04,VALID,916.878,VALID,0,VALID,96.6115,VALID,0,VALID,17.1505,VALID,168,VALID,0.959375,
2010-07-17, 01:07:04,VALID,916.872,VALID,0,VALID,96.6878,VALID,0,VALID,17.131,VALID,168,VALID,0.939453,
2010-07-17, 01:08:04,VALID,916.866,VALID,0,VALID,96.7107,VALID,0,VALID,17.131,VALID,168,VALID,0.674609,
2010-07-17, 01:09:04,VALID,916.824,VALID,0,VALID,96.7335,VALID,0,VALID,17.131,VALID,168,VALID,1.02617,
2010-07-17, 01:10:04,VALID,916.82,VALID,0,VALID,96.7335,VALID,0,VALID,17.1505,VALID,168,VALID,1.11758,
2010-07-17, 01:11:04,VALID,916.791,VALID,0,VALID,96.6954,VALID,0,VALID,17.1505,VALID,168,VALID,0.980859,
2010-07-17, 01:12:04,VALID,916.771,VALID,0,VALID,96.6268,VALID,0,VALID,17.1505,VALID,147,VALID,1.14414,
2010-07-17, 01:13:04,VALID,916.8,VALID,0,VALID,96.5048,VALID,0,VALID,17.1895,VALID,157,VALID,1.24922,
2010-07-17, 01:14:04,VALID,916.779,VALID,0,VALID,96.3829,VALID,0,VALID,17.209,VALID,136,VALID,1.05078,
2010-07-17, 01:15:04,VALID,916.726,VALID,0,VALID,96.1846,VALID,0,VALID,17.209,VALID,119,VALID,1.23945,
2010-07-17, 01:16:04,VALID,916.723,VALID,0,VALID,95.9026,VALID,0,VALID,17.2466,VALID,119,VALID,1.1957,
2010-07-17, 01:17:04,VALID,916.726,VALID,0,VALID,95.5671,VALID,0,VALID,17.2661,VALID,119,VALID,1.32422,
2010-07-17, 01:18:04,VALID,916.688,VALID,0,VALID,95.0945,VALID,0,VALID,17.2856,VALID,119,VALID,1.27813,
2010-07-17, 01:19:04,VALID,916.688,VALID,0,VALID,94.6447,VALID,0,VALID,17.3246,VALID,119,VALID,1.37188,
2010-07-17, 01:20:04,VALID,916.688,VALID,0,VALID,94.233,VALID,0,VALID,17.3441,VALID,98,VALID,1.44922,
2010-07-17, 01:21:04,VALID,916.643,VALID,0,VALID,93.9815,VALID,0.107441,VALID,17.3441,VALID,98,VALID,1.19414,
2010-07-17, 01:22:04,VALID,916.634,VALID,0,VALID,93.8976,VALID,0,VALID,17.3233,VALID,98,VALID,1.03594,
2010-07-17, 01:23:04,VALID,916.638,VALID,0,VALID,93.9662,VALID,0.107441,VALID,17.3441,VALID,98,VALID,1.23242,
2010-07-17, 01:24:04,VALID,916.668,VALID,0,VALID,93.8214,VALID,0,VALID,17.3441,VALID,98,VALID,1.38086,
2010-07-17, 01:25:04,VALID,916.638,VALID,0,VALID,93.5622,VALID,0,VALID,17.3635,VALID,132,VALID,1.43477,
2010-07-17, 01:26:04,VALID,916.667,VALID,0,VALID,93.3411,VALID,0,VALID,17.4025,VALID,125,VALID,1.48164,
2010-07-17, 01:27:04,VALID,916.654,VALID,0,VALID,93.1963,VALID,0,VALID,17.422,VALID,120,VALID,1.25,
2010-07-17, 01:28:04,VALID,916.641,VALID,0,VALID,92.8913,VALID,0,VALID,17.4415,VALID,119,VALID,1.29844,
2010-07-17, 01:29:04,VALID,916.658,VALID,0,VALID,92.9066,VALID,0.107441,VALID,17.4402,VALID,120,VALID,1.67969,
2010-07-17, 01:30:04,VALID,916.628,VALID,0,VALID,92.6702,VALID,0.107441,VALID,17.5194,VALID,120,VALID,0.898047,
2010-07-17, 01:31:04,VALID,916.647,VALID,0,VALID,92.3272,VALID,0,VALID,17.5194,VALID,119,VALID,1.08047,
2010-07-17, 01:32:04,VALID,916.631,VALID,0,VALID,92.3196,VALID,0.107441,VALID,17.5389,VALID,120,VALID,1.22891,
2010-07-17, 01:33:04,VALID,916.603,VALID,0,VALID,92.9828,VALID,0.107441,VALID,17.5389,VALID,120,VALID,1.15117,
2010-07-17, 01:34:04,VALID,916.626,VALID,0,VALID,93.1963,VALID,0,VALID,17.461,VALID,119,VALID,0.992578,
2010-07-17, 01:35:04,VALID,916.577,VALID,0,VALID,93.1353,VALID,0.107441,VALID,17.4207,VALID,119,VALID,1.01484,
2010-07-17, 01:36:04,VALID,916.565,VALID,0,VALID,93.3182,VALID,0,VALID,17.4207,VALID,120,VALID,0.885938,
2010-07-17, 01:37:04,VALID,916.558,VALID,0,VALID,93.5546,VALID,0.107441,VALID,17.4025,VALID,119,VALID,0.949219,
2010-07-17, 01:38:04,VALID,916.537,VALID,0,VALID,93.8595,VALID,0,VALID,17.383,VALID,120,VALID,1.14766,
2010-07-17, 01:39:04,VALID,916.517,VALID,0,VALID,94.1339,VALID,0,VALID,17.3635,VALID,119,VALID,0.964453,
2010-07-17, 01:40:04,VALID,916.506,VALID,0,VALID,94.3093,VALID,0,VALID,17.3246,VALID,120,VALID,1.26484,
2010-07-17, 01:41:04,VALID,916.522,VALID,0,VALID,94.4389,VALID,0,VALID,17.3246,VALID,120,VALID,0.998828,
2010-07-17, 01:42:04,VALID,916.514,VALID,0,VALID,94.5837,VALID,0,VALID,17.2856,VALID,119,VALID,0.787891,
2010-07-17, 01:43:04,VALID,916.56,VALID,0,VALID,94.7286,VALID,0,VALID,17.2856,VALID,120,VALID,0.555859,
2010-07-17, 01:44:04,VALID,916.533,VALID,0,VALID,94.881,VALID,0,VALID,17.2856,VALID,119,VALID,0.496484,
2010-07-17, 01:45:04,VALID,916.545,VALID,0,VALID,95.003,VALID,0,VALID,17.2856,VALID,120,VALID,0.382422,
2010-07-17, 01:46:04,VALID,916.518,VALID,0,VALID,95.003,VALID,0,VALID,17.2271,VALID,120,VALID,0.392188,
2010-07-17, 01:47:04,VALID,916.512,VALID,0,VALID,95.0945,VALID,0,VALID,17.2285,VALID,120,VALID,1.11406,
2010-07-17, 01:48:04,VALID,916.48,VALID,0,VALID,95.1631,VALID,0,VALID,17.209,VALID,120,VALID,1.01055,
2010-07-17, 01:49:04,VALID,916.486,VALID,0,VALID,95.1936,VALID,0,VALID,17.209,VALID,120,VALID,0.870313,
2010-07-17, 01:50:04,VALID,916.468,VALID,0,VALID,95.0945,VALID,0,VALID,17.2285,VALID,120,VALID,0.763281,
2010-07-17, 01:51:04,VALID,916.466,VALID,0,VALID,95.0183,VALID,0,VALID,17.2285,VALID,120,VALID,0.719141,
2010-07-17, 01:52:04,VALID,916.468,VALID,0,VALID,94.942,VALID,0,VALID,17.2077,VALID,120,VALID,1.21758,
2010-07-17, 01:53:04,VALID,916.435,VALID,0,VALID,94.8277,VALID,0,VALID,17.2479,VALID,120,VALID,0.746094,
2010-07-17, 01:54:04,VALID,916.449,VALID,0,VALID,94.8963,VALID,0,VALID,17.3077,VALID,119,VALID,0.417188,
2010-07-17, 01:55:04,VALID,916.424,VALID,0,VALID,94.881,VALID,0,VALID,17.2869,VALID,119,VALID,0.540234,
2010-07-17, 01:56:04,VALID,916.401,VALID,0,VALID,94.8887,VALID,0,VALID,17.2869,VALID,120,VALID,0.542578,
2010-07-17, 01:57:04,VALID,916.388,VALID,0,VALID,94.8048,VALID,0,VALID,17.2674,VALID,120,VALID,0.744922,
2010-07-17, 01:58:04,VALID,916.385,VALID,0,VALID,94.5761,VALID,0,VALID,17.2869,VALID,120,VALID,0.897656,
2010-07-17, 01:59:04,VALID,916.359,VALID,0,VALID,94.4313,VALID,0,VALID,17.3064,VALID,120,VALID,1.09453,
2010-07-17, 02:00:04,VALID,916.354,VALID,0,VALID,94.1416,VALID,0,VALID,17.3064,VALID,119,VALID,1.10586,
2010-07-17, 02:01:04,VALID,916.314,VALID,0,VALID,93.8366,VALID,0,VALID,17.3454,VALID,120,VALID,0.932031,
2010-07-17, 02:02:04,VALID,916.335,VALID,0,VALID,93.7604,VALID,0,VALID,17.3454,VALID,120,VALID,0.833984,
2010-07-17, 02:03:04,VALID,916.301,VALID,0,VALID,93.6384,VALID,0,VALID,17.3454,VALID,120,VALID,0.834766,
2010-07-17, 02:04:04,VALID,916.307,VALID,0,VALID,93.5088,VALID,0,VALID,17.3649,VALID,119,VALID,1.02852,
2010-07-17, 02:05:04,VALID,916.318,VALID,0,VALID,93.3487,VALID,0,VALID,17.4038,VALID,119,VALID,0.894922,
2010-07-17, 02:06:04,VALID,916.281,VALID,0,VALID,93.4021,VALID,0,VALID,17.3649,VALID,119,VALID,1.16055,
2010-07-17, 02:07:04,VALID,916.281,VALID,0,VALID,93.4326,VALID,0,VALID,17.3844,VALID,119,VALID,1.3332,
2010-07-17, 02:08:04,VALID,916.26,VALID,0,VALID,93.4021,VALID,0,VALID,17.4233,VALID,116,VALID,1.39844,
2010-07-17, 02:09:04,VALID,916.24,VALID,0,VALID,93.2191,VALID,0,VALID,17.4233,VALID,110,VALID,1.40469,
2010-07-17, 02:10:04,VALID,916.229,VALID,0,VALID,93.1581,VALID,0,VALID,17.4415,VALID,110,VALID,0.969922,
2010-07-17, 02:11:04,VALID,916.276,VALID,0,VALID,93.3868,VALID,0,VALID,17.4818,VALID,110,VALID,1.17031,
2010-07-17, 02:12:04,VALID,916.249,VALID,0,VALID,93.5469,VALID,0,VALID,17.5,VALID,110,VALID,1.40078,
2010-07-17, 02:13:04,VALID,916.285,VALID,0,VALID,93.6003,VALID,0,VALID,17.5208,VALID,110,VALID,1.21719,
2010-07-17, 02:14:04,VALID,916.238,VALID,0,VALID,93.6155,VALID,0,VALID,17.5208,VALID,151,VALID,1.40156,
2010-07-17, 02:15:04,VALID,916.212,VALID,0,VALID,93.5774,VALID,0,VALID,17.4818,VALID,153,VALID,1.36133,
2010-07-17, 02:16:04,VALID,916.218,VALID,0,VALID,93.8138,VALID,0,VALID,17.4623,VALID,147,VALID,1.05,
2010-07-17, 02:17:04,VALID,916.212,VALID,0,VALID,93.9434,VALID,0,VALID,17.4623,VALID,146,VALID,0.742578,
2010-07-17, 02:18:04,VALID,916.186,VALID,0,VALID,93.9434,VALID,0,VALID,17.4428,VALID,128,VALID,1.02578,
2010-07-17, 02:19:04,VALID,916.137,VALID,0,VALID,93.9357,VALID,0,VALID,17.4233,VALID,128,VALID,1.5168,
2010-07-17, 02:20:04,VALID,916.118,VALID,0,VALID,93.8824,VALID,0,VALID,17.4428,VALID,128,VALID,1.06484,
2010-07-17, 02:21:04,VALID,916.138,VALID,0,VALID,93.9434,VALID,0,VALID,17.4428,VALID,128,VALID,0.710547,
2010-07-17, 02:22:04,VALID,916.11,VALID,0,VALID,94.0348,VALID,0,VALID,17.383,VALID,128,VALID,0.720312,
2010-07-17, 02:23:04,VALID,916.068,VALID,0,VALID,94.2026,VALID,0,VALID,17.3844,VALID,128,VALID,1.10312,
2010-07-17, 02:24:04,VALID,916.067,VALID,0,VALID,94.294,VALID,0,VALID,17.3844,VALID,128,VALID,0.939062,
2010-07-17, 02:25:04,VALID,916.048,VALID,0,VALID,94.3779,VALID,0,VALID,17.4038,VALID,128,VALID,0.925,
2010-07-17, 02:26:04,VALID,916.002,VALID,0,VALID,94.4694,VALID,0,VALID,17.4038,VALID,128,VALID,0.875,
2010-07-17, 02:27:04,VALID,915.973,VALID,0,VALID,94.3931,VALID,0,VALID,17.4038,VALID,128,VALID,1.03437,
2010-07-17, 02:28:04,VALID,915.935,VALID,0,VALID,94.2864,VALID,0,VALID,17.4038,VALID,128,VALID,0.955859,
2010-07-17, 02:29:04,VALID,915.984,VALID,0,VALID,94.2254,VALID,0,VALID,17.4233,VALID,128,VALID,1.09219,
2010-07-17, 02:30:04,VALID,915.975,VALID,0,VALID,94.1949,VALID,0,VALID,17.4818,VALID,128,VALID,0.589453,
2010-07-17, 02:31:04,VALID,915.999,VALID,0,VALID,94.2026,VALID,0,VALID,17.4805,VALID,128,VALID,0.226953,
2010-07-17, 02:32:04,VALID,915.972,VALID,0,VALID,94.1034,VALID,0,VALID,17.5013,VALID,128,VALID,0.455469,
2010-07-17, 02:33:04,VALID,915.952,VALID,0,VALID,94.073,VALID,0,VALID,17.4805,VALID,128,VALID,0.3625,
2010-07-17, 02:34:04,VALID,915.939,VALID,0,VALID,94.0425,VALID,0,VALID,17.4818,VALID,128,VALID,0.399219,
2010-07-17, 02:35:04,VALID,915.92,VALID,0,VALID,94.0425,VALID,0,VALID,17.461,VALID,128,VALID,0.867578,
2010-07-17, 02:36:04,VALID,915.906,VALID,0,VALID,94.0577,VALID,0,VALID,17.4623,VALID,128,VALID,0.305859,
2010-07-17, 02:37:04,VALID,915.86,VALID,0,VALID,94.1568,VALID,0,VALID,17.4233,VALID,128,VALID,0.557031,
2010-07-17, 02:38:04,VALID,915.888,VALID,0,VALID,94.233,VALID,0,VALID,17.4233,VALID,128,VALID,0.439063,
2010-07-17, 02:39:04,VALID,915.862,VALID,0,VALID,94.2407,VALID,0,VALID,17.4441,VALID,128,VALID,0.708203,
2010-07-17, 02:40:04,VALID,915.839,VALID,0,VALID,94.2026,VALID,0,VALID,17.4428,VALID,128,VALID,0.725,
2010-07-17, 02:41:04,VALID,915.841,VALID,0,VALID,94.012,VALID,0,VALID,17.4623,VALID,128,VALID,0.744141,
2010-07-17, 02:42:04,VALID,915.814,VALID,0,VALID,93.7985,VALID,0,VALID,17.4818,VALID,128,VALID,0.946875,
2010-07-17, 02:43:04,VALID,915.834,VALID,0,VALID,93.6918,VALID,0,VALID,17.5208,VALID,128,VALID,0.750781,
2010-07-17, 02:44:04,VALID,915.836,VALID,0,VALID,93.4326,VALID,0,VALID,17.5403,VALID,128,VALID,0.877734,
2010-07-17, 02:45:04,VALID,915.815,VALID,0,VALID,93.242,VALID,0,VALID,17.5389,VALID,128,VALID,0.761719,
2010-07-17, 02:46:04,VALID,915.793,VALID,0,VALID,93.1505,VALID,0.107441,VALID,17.5584,VALID,128,VALID,0.723437,
2010-07-17, 02:47:04,VALID,915.795,VALID,0,VALID,93.1048,VALID,0,VALID,17.5779,VALID,128,VALID,0.875391,
2010-07-17, 02:48:04,VALID,915.772,VALID,0,VALID,92.8913,VALID,0.107441,VALID,17.5974,VALID,128,VALID,0.645703,
2010-07-17, 02:49:04,VALID,915.745,VALID,0,VALID,92.9218,VALID,0.107441,VALID,17.6169,VALID,129,VALID,0.829297,
2010-07-17, 02:50:04,VALID,915.744,VALID,0,VALID,92.8913,VALID,0,VALID,17.6169,VALID,129,VALID,0.680469,
2010-07-17, 02:51:04,VALID,915.744,VALID,0,VALID,92.9218,VALID,0.107441,VALID,17.6169,VALID,129,VALID,0.614453,
2010-07-17, 02:52:04,VALID,915.753,VALID,0,VALID,92.9294,VALID,0.107441,VALID,17.5974,VALID,129,VALID,0.565625,
2010-07-17, 02:53:04,VALID,915.727,VALID,0,VALID,92.9599,VALID,0.107441,VALID,17.5779,VALID,129,VALID,0.774609,
2010-07-17, 02:54:04,VALID,915.747,VALID,0,VALID,92.9599,VALID,0.107441,VALID,17.5584,VALID,129,VALID,0.980078,
2010-07-17, 02:55:04,VALID,915.734,VALID,0,VALID,93.0972,VALID,0.107441,VALID,17.5389,VALID,129,VALID,1.23828,
2010-07-17, 02:56:04,VALID,915.721,VALID,0,VALID,93.2649,VALID,0,VALID,17.5389,VALID,129,VALID,0.85,
2010-07-17, 02:57:04,VALID,915.739,VALID,0,VALID,93.4478,VALID,0.107441,VALID,17.5,VALID,129,VALID,0.683594,
2010-07-17, 02:58:04,VALID,915.744,VALID,0,VALID,93.5469,VALID,0.107441,VALID,17.4805,VALID,129,VALID,0.755469,
2010-07-17, 02:59:04,VALID,915.7,VALID,0,VALID,93.5469,VALID,0.107441,VALID,17.461,VALID,129,VALID,1.25,
2010-07-17, 03:00:04,VALID,915.716,VALID,0,VALID,93.5774,VALID,0,VALID,17.5,VALID,129,VALID,1.07734,
2010-07-17, 03:01:04,VALID,915.691,VALID,0,VALID,93.5927,VALID,0,VALID,17.5208,VALID,129,VALID,0.898828,
2010-07-17, 03:02:04,VALID,915.691,VALID,0,VALID,93.5774,VALID,0,VALID,17.5403,VALID,129,VALID,1.16211,
2010-07-17, 03:03:04,VALID,915.679,VALID,0,VALID,93.5622,VALID,0,VALID,17.5208,VALID,129,VALID,1.15078,
2010-07-17, 03:04:04,VALID,915.649,VALID,0,VALID,93.5088,VALID,0,VALID,17.5208,VALID,129,VALID,1.1875,
2010-07-17, 03:05:04,VALID,915.663,VALID,0,VALID,93.4859,VALID,0,VALID,17.5598,VALID,129,VALID,1.05469,
2010-07-17, 03:06:04,VALID,915.656,VALID,0,VALID,93.5164,VALID,0,VALID,17.5584,VALID,129,VALID,0.939844,
2010-07-17, 03:07:04,VALID,915.642,VALID,0,VALID,93.4478,VALID,0,VALID,17.5987,VALID,129,VALID,0.876172,
2010-07-17, 03:08:04,VALID,915.631,VALID,0,VALID,93.3868,VALID,0,VALID,17.6182,VALID,129,VALID,0.841016,
2010-07-17, 03:09:04,VALID,915.628,VALID,0,VALID,93.303,VALID,0,VALID,17.6364,VALID,129,VALID,0.789063,
2010-07-17, 03:10:04,VALID,915.631,VALID,0,VALID,93.2496,VALID,0,VALID,17.6767,VALID,129,VALID,0.751562,
2010-07-17, 03:11:04,VALID,915.66,VALID,0,VALID,93.2496,VALID,0,VALID,17.6767,VALID,129,VALID,0.375391,
2010-07-17, 03:12:04,VALID,915.682,VALID,0,VALID,93.2877,VALID,0,VALID,17.6962,VALID,129,VALID,0.0351563,
2010-07-17, 03:13:04,VALID,915.684,VALID,0,VALID,93.3792,VALID,0,VALID,17.6767,VALID,129,VALID,0,
2010-07-17, 03:14:04,VALID,915.656,VALID,0,VALID,93.6155,VALID,0,VALID,17.6767,VALID,129,VALID,0,
2010-07-17, 03:15:04,VALID,915.689,VALID,0,VALID,93.6918,VALID,0,VALID,17.6767,VALID,129,VALID,0,
2010-07-17, 03:16:04,VALID,915.729,VALID,0,VALID,93.6384,VALID,0,VALID,17.6962,VALID,129,VALID,0,
2010-07-17, 03:17:04,VALID,915.76,VALID,0,VALID,93.7604,VALID,0,VALID,17.6962,VALID,129,VALID,0,
2010-07-17, 03:18:04,VALID,915.751,VALID,0,VALID,93.8671,VALID,0,VALID,17.7157,VALID,129,VALID,0,
2010-07-17, 03:19:04,VALID,915.719,VALID,0,VALID,93.8519,VALID,0,VALID,17.7157,VALID,129,VALID,0.436719,
2010-07-17, 03:20:04,VALID,915.749,VALID,0,VALID,93.6994,VALID,0,VALID,17.7157,VALID,129,VALID,0.512109,
2010-07-17, 03:21:04,VALID,915.793,VALID,0,VALID,93.5622,VALID,0,VALID,17.7547,VALID,129,VALID,0.367969,
2010-07-17, 03:22:04,VALID,915.781,VALID,0,VALID,93.2268,VALID,0,VALID,17.7741,VALID,129,VALID,0.201562,
2010-07-17, 03:23:04,VALID,915.77,VALID,0,VALID,93.0285,VALID,0,VALID,17.8521,VALID,129,VALID,0.714063,
2010-07-17, 03:24:04,VALID,915.811,VALID,0,VALID,92.8075,VALID,0,VALID,17.9106,VALID,129,VALID,0.628125,
2010-07-17, 03:25:04,VALID,915.827,VALID,0,VALID,92.594,VALID,0,VALID,17.9301,VALID,129,VALID,0.427344,
2010-07-17, 03:26:04,VALID,915.798,VALID,0,VALID,92.6855,VALID,0,VALID,17.9496,VALID,129,VALID,0.339453,
2010-07-17, 03:27:04,VALID,915.799,VALID,0,VALID,92.5102,VALID,0,VALID,17.9691,VALID,129,VALID,0,
2010-07-17, 03:28:04,VALID,915.766,VALID,0,VALID,92.4949,VALID,0,VALID,17.9691,VALID,129,VALID,0.404297,
2010-07-17, 03:29:04,VALID,915.778,VALID,0,VALID,92.6093,VALID,0,VALID,17.9496,VALID,129,VALID,0.0457031,
2010-07-17, 03:30:04,VALID,915.799,VALID,0,VALID,92.8227,VALID,0,VALID,17.9496,VALID,129,VALID,0.210547,
2010-07-17, 03:31:04,VALID,915.802,VALID,0,VALID,93.059,VALID,0.107441,VALID,17.9482,VALID,129,VALID,0.457422,
2010-07-17, 03:32:04,VALID,915.794,VALID,0,VALID,93.3106,VALID,0.107441,VALID,17.9287,VALID,129,VALID,0.154687,
2010-07-17, 03:33:04,VALID,915.763,VALID,0,VALID,93.181,VALID,0.107441,VALID,17.8702,VALID,129,VALID,0.451562,
2010-07-17, 03:34:04,VALID,915.749,VALID,0,VALID,93.2496,VALID,0,VALID,17.8313,VALID,129,VALID,0.845703,
2010-07-17, 03:35:04,VALID,915.795,VALID,0,VALID,93.3868,VALID,0,VALID,17.7923,VALID,129,VALID,0.116016,
2010-07-17, 03:36:04,VALID,915.773,VALID,0,VALID,93.6613,VALID,0,VALID,17.7923,VALID,129,VALID,0.230469,
2010-07-17, 03:37:04,VALID,915.755,VALID,0,VALID,93.7147,VALID,0,VALID,17.7923,VALID,129,VALID,0.03125,
2010-07-17, 03:38:04,VALID,915.772,VALID,0,VALID,93.3106,VALID,0,VALID,17.8118,VALID,129,VALID,0.669922,
2010-07-17, 03:39:04,VALID,915.757,VALID,0,VALID,92.9676,VALID,0,VALID,17.8508,VALID,129,VALID,0.404687,
2010-07-17, 03:40:04,VALID,915.773,VALID,0,VALID,93.12,VALID,0,VALID,17.9092,VALID,129,VALID,0.184375,
2010-07-17, 03:41:04,VALID,915.784,VALID,0,VALID,92.9904,VALID,0,VALID,17.9092,VALID,129,VALID,0,
2010-07-17, 03:42:04,VALID,915.757,VALID,0,VALID,93.2039,VALID,0,VALID,17.9092,VALID,129,VALID,0,
2010-07-17, 03:43:04,VALID,915.73,VALID,0,VALID,93.303,VALID,0.107441,VALID,17.9287,VALID,129,VALID,0.496094,
2010-07-17, 03:44:04,VALID,915.731,VALID,0,VALID,93.3868,VALID,0.107441,VALID,17.8702,VALID,129,VALID,0.614062,